College Park, MD

11:59 PM EST on December 13, 2019 (GMT -0500)
College Park

Weather History for KCGS - October, 2019

Change the Weather History Date:

Saturday, October 19, 2019

  Actual Average Record
Temperature  
Mean Temperature 50 °F -  
Max Temperature 63 °F 66 °F 86 °F (2016)
Min Temperature 36 °F 45 °F 28 °F (1948)
Degree Days  
Heating Degree Days 16    
Moisture  
Dew Point 37 °F    
Average Humidity 66    
Maximum Humidity 94    
Minimum Humidity 32    
Precipitation  
Precipitation 0.00 in - - ()
Sea Level Pressure  
Sea Level Pressure 30.07 in    
Wind  
Wind Speed 1 mph (SSW)    
Max Wind Speed 7 mph    
Max Gust Speed -    
Visibility 10 miles    
Events      
Averages and records for this station are not official NWS values.
T = Trace of Precipitation, MM = Missing Value Source: NWS Daily Summary

Daily Weather History Graph

Daily Weather History Graph

Search for Another Location

Airport or City:

Astronomy

Oct. 19, 2019 Rise Set
Actual Time 7:20 AM EDT 6:23 PM EDT
Civil Twilight 6:53 AM EDT 6:50 PM EDT
Nautical Twilight 6:22 AM EDT 7:21 PM EDT
Astronomical Twilight 5:51 AM EDT 7:52 PM EDT
Moon 10:32 PM EDT (10/19) 12:49 PM EDT (10/19)
Length of Visible Light 11h 56m
Length of Day
11h 02m
Waning Gibbous, 70% of the Moon is Illuminated
Oct 19
Waning Gibbous
Oct 21
Last Quarter
Oct 27
New
Nov 4
First Quarter
Nov 12
Full

Hourly Weather History & Observations

Time (EDT) Temp. Dew Point Humidity Pressure Visibility Wind Dir Wind Speed Gust Speed Precip Events Conditions
12:03 AM 44.2 °F 36.3 °F 74% 30.06 in 10.0 mi Calm Calm - N/A   Clear
12:23 AM 43.7 °F 36.5 °F 76% 30.05 in 10.0 mi Calm Calm - N/A   Clear
12:43 AM 42.8 °F 36.0 °F 77% 30.05 in 10.0 mi Calm Calm - N/A   Clear
1:03 AM 41.7 °F 35.6 °F 79% 30.05 in 10.0 mi Calm Calm - N/A   Clear
1:23 AM 41.2 °F 35.6 °F 81% 30.04 in 10.0 mi Calm Calm - N/A   Clear
1:43 AM 40.6 °F 35.2 °F 81% 30.05 in 10.0 mi Calm Calm - N/A   Clear
2:03 AM 39.9 °F 34.7 °F 82% 30.06 in 10.0 mi Calm Calm - N/A   Clear
2:23 AM 39.6 °F 34.7 °F 83% 30.07 in 10.0 mi Calm Calm - N/A   Clear
2:43 AM 39.7 °F 35.2 °F 84% 30.05 in 10.0 mi Calm Calm - N/A   Clear
3:03 AM 38.8 °F 34.9 °F 86% 30.05 in 10.0 mi Calm Calm - N/A   Clear
3:23 AM 38.7 °F 35.1 °F 87% 30.06 in 10.0 mi Calm Calm - N/A   Clear
3:43 AM 38.7 °F 36.0 °F 90% 30.07 in 10.0 mi Calm Calm - N/A   Clear
4:03 AM 38.3 °F 36.0 °F 91% 30.08 in 10.0 mi Calm Calm - N/A   Clear
4:23 AM 37.8 °F 36.0 °F 93% 30.09 in 10.0 mi Calm Calm - N/A   Clear
4:43 AM 37.9 °F 36.1 °F 93% 30.09 in 10.0 mi Calm Calm - N/A   Clear
5:03 AM 37.6 °F 36.0 °F 94% 30.10 in 10.0 mi Calm Calm - N/A   Clear
5:23 AM 37.4 °F 35.6 °F 93% 30.10 in 10.0 mi Calm Calm - N/A   Clear
6:03 AM 36.9 °F 35.2 °F 94% 30.11 in 10.0 mi Calm Calm - N/A   Clear
6:23 AM 36.7 °F 35.1 °F 94% 30.12 in 10.0 mi Calm Calm - N/A   Clear
6:43 AM 36.5 °F 34.9 °F 94% 30.11 in 10.0 mi Calm Calm - N/A   Clear
7:03 AM 36.1 °F 34.7 °F 94% 30.11 in 10.0 mi Calm Calm - N/A   Clear
7:23 AM 36.1 °F 34.7 °F 94% 30.12 in 10.0 mi Calm Calm - N/A   Clear
7:43 AM 36.3 °F 34.5 °F 93% 30.12 in 10.0 mi Calm Calm - N/A   Clear
8:03 AM 36.9 °F 35.2 °F 94% 30.12 in 10.0 mi Calm Calm - N/A   Clear
8:23 AM 38.7 °F 37.0 °F 94% 30.12 in 10.0 mi Calm Calm - N/A   Clear
8:43 AM 41.7 °F 39.9 °F 93% 30.13 in 10.0 mi Calm Calm - N/A   Clear
9:03 AM 44.4 °F 41.5 °F 90% 30.12 in 10.0 mi Calm Calm - N/A   Clear
9:23 AM 46.6 °F 36.9 °F 69% 30.12 in 10.0 mi Calm Calm - N/A   Clear
9:43 AM 48.0 °F 37.4 °F 67% 30.12 in 10.0 mi Calm Calm - N/A   Clear
10:03 AM 51.8 °F 37.8 °F 59% 30.11 in 10.0 mi Calm Calm - N/A   Clear
10:23 AM 54.3 °F 35.6 °F 49% 30.12 in 10.0 mi Calm Calm - N/A   Clear
10:43 AM 56.3 °F 34.7 °F 44% 30.12 in 10.0 mi Calm Calm - N/A   Clear
11:03 AM 56.7 °F 34.2 °F 43% 30.11 in 10.0 mi Calm Calm - N/A   Clear
11:23 AM 58.1 °F 34.9 °F 42% 30.12 in 10.0 mi Calm Calm - N/A   Clear
11:43 AM 59.0 °F 33.4 °F 38% 30.12 in 10.0 mi SSE 3.5 mph - N/A   Clear
12:03 PM 59.5 °F 33.1 °F 37% 30.11 in 10.0 mi SW 4.6 mph - N/A   Clear
12:23 PM 59.7 °F 34.7 °F 39% 30.11 in 10.0 mi Calm Calm - N/A   Clear
12:43 PM 60.3 °F 34.2 °F 38% 30.10 in 10.0 mi ESE 3.5 mph - N/A   Clear
1:03 PM 62.1 °F 34.5 °F 36% 30.09 in 10.0 mi West 6.9 mph - N/A   Clear
1:23 PM 63.1 °F 32.9 °F 32% 30.09 in 10.0 mi SW 5.8 mph - N/A   Clear
1:43 PM 61.2 °F 33.8 °F 36% 30.08 in 10.0 mi SW 5.8 mph - N/A   Clear
2:03 PM 61.5 °F 34.7 °F 37% 30.07 in 10.0 mi South 4.6 mph - N/A   Clear
2:23 PM 61.9 °F 34.5 °F 36% 30.07 in 10.0 mi WSW 3.5 mph - N/A   Clear
2:43 PM 62.1 °F 34.7 °F 36% 30.06 in 10.0 mi SW 3.5 mph - N/A   Clear
3:03 PM 61.5 °F 35.6 °F 38% 30.05 in 10.0 mi SW 4.6 mph - N/A   Clear
3:23 PM 62.2 °F 35.1 °F 36% 30.04 in 10.0 mi SSW 4.6 mph - N/A   Clear
3:43 PM 62.2 °F 35.8 °F 37% 30.04 in 10.0 mi South 5.8 mph - N/A   Clear
4:03 PM 61.9 °F 36.1 °F 38% 30.04 in 10.0 mi South 5.8 mph - N/A   Clear
4:23 PM 61.3 °F 35.4 °F 38% 30.04 in 10.0 mi South 5.8 mph - N/A   Clear
4:43 PM 61.5 °F 36.5 °F 39% 30.03 in 10.0 mi South 5.8 mph - N/A   Clear
5:03 PM 61.0 °F 37.0 °F 41% 30.03 in 10.0 mi SSW 3.5 mph - N/A   Clear
5:23 PM 60.4 °F 36.7 °F 41% 30.03 in 10.0 mi SW 3.5 mph - N/A   Clear
5:43 PM 60.3 °F 37.4 °F 43% 30.03 in 10.0 mi Calm Calm - N/A   Clear
6:03 PM 60.1 °F 37.9 °F 44% 30.02 in 10.0 mi Calm Calm - N/A   Clear
6:23 PM 57.0 °F 40.1 °F 53% 30.02 in 10.0 mi Calm Calm - N/A   Clear
6:43 PM 55.4 °F 41.2 °F 59% 30.02 in 10.0 mi Calm Calm - N/A   Clear
7:03 PM 54.0 °F 41.4 °F 62% 30.02 in 10.0 mi Calm Calm - N/A   Clear
7:23 PM 53.6 °F 41.9 °F 65% 30.02 in 10.0 mi Calm Calm - N/A   Clear
7:43 PM 52.7 °F 42.1 °F 67% 30.03 in 10.0 mi Calm Calm - N/A   Clear
8:03 PM 52.2 °F 42.6 °F 70% 30.02 in 10.0 mi Calm Calm - N/A   Clear
8:23 PM 52.3 °F 42.3 °F 69% 30.02 in 10.0 mi Calm Calm - N/A   Clear
8:43 PM 51.8 °F 42.8 °F 71% 30.02 in 10.0 mi Calm Calm - N/A   Clear
9:03 PM 51.8 °F 43.0 °F 72% 30.02 in 10.0 mi Calm Calm - N/A   Clear
9:23 PM 51.4 °F 43.7 °F 75% 30.01 in 10.0 mi Calm Calm - N/A   Clear
9:43 PM 51.1 °F 43.9 °F 76% 30.02 in 10.0 mi Calm Calm - N/A   Clear
10:03 PM 50.5 °F 43.9 °F 78% 30.01 in 10.0 mi Calm Calm - N/A   Clear
10:23 PM 50.0 °F 43.7 °F 79% 30.02 in 10.0 mi Calm Calm - N/A   Clear
10:43 PM 50.0 °F 43.7 °F 79% 30.01 in 10.0 mi Calm Calm - N/A   Clear
11:03 PM 50.2 °F 43.5 °F 78% 30.02 in 10.0 mi Calm Calm - N/A   Clear
11:23 PM 50.2 °F 43.7 °F 78% 30.02 in 10.0 mi Calm Calm - N/A   Clear
11:43 PM 49.8 °F 43.7 °F 79% 30.02 in 10.0 mi Calm Calm - N/A   Clear